Route Details

Aircraft Information
Group: Large Widebodies
Types: B744, MD11
Route Data
Distance: 3554nm
Duration: 8h 00m
Origin METAR: SBGR 010500Z 07006KT 8000 -RA FEW005 OVC100 20/20 Q1017
Dest. METAR: KMIA 010453Z 13004KT 10SM CLR 23/20 A3019 RMK AO2 SLP222 T02280200 402890222 $
Freight Data
(for Feb 1, 2023)
Load Factor:
92%
Manifested Cargo: 205,043lbs
Financial History
Total Freight: 382,141lbs
Average Load: 0lbs/flt
Fuel Used: 268,488lbs
Avg. Fuel Used: 0lbs/flt
Fuel Expense: $159,144
Avg. Fuel Expense: $0
Avg. Fuel Cost: $0/lbs
Total Gross Income: $1,082,653
Pilot Pay: $388
Total Expenses: $168,611
Total Revenue: $749,811
Average Revenue: $0

Capitol Logistics 777




SBGR
Guarulhos International Airport
Sao Paulo, BR
KMIA
Miami International Airport
Miami, US

Activity Log

Date Flight Route Aircraft Duration
08/01/2022 CPX777 UKBE1D UKBEV UL201 ASTOB UM417 OBGAT UZ21 VUMPI UL795 ALTIB UM779 ZEUSS VIICE2 B744 7h 41m
09/29/2019 CPX796 UKBE1C UKBEV ASTOB UM417 OBGAT UZ21 VUMPI UL795 URSUS FLIPR6 B744 8h 38m